CW5834 Weather Reports


time (UTC)temp
F
wind
direction
speed
knots
gust
knots
rain 1hr
in
rain 24hr
in
rain mn
in
humidity
%
barometer
mb
20260503035537 44 0.0 0.9 0.00 0.00 0.00 79 1017.9
20260503034517 44 0.0 0.9 0.00 0.00 0.00 79 1017.9
20260503033537 44 0.0 1.7 0.00 0.00 0.00 80 1017.8
20260503032517 44 0.0 1.7 0.00 0.00 0.00 79 1017.9
20260503031537 44 0.0 0.9 0.00 0.00 0.00 77 1017.7
20260503030516 44 0.0 0.0 0.00 0.00 0.00 78 1017.7
20260503025516 44 0.0 1.7 0.00 0.00 0.00 78 1017.7
20260503024517 44 0.0 1.7 0.00 0.00 0.00 78 1017.7
20260503023516 44 0.0 1.7 0.00 0.00 0.00 76 1017.6
20260503022516 44 0.0 0.9 0.00 0.00 0.00 75 1017.4
20260503021517 44 0.0 0.9 0.00 0.00 0.00 74 1017.3
20260503020516 45 0.0 0.0 0.00 0.00 0.00 74 1017.3
20260503015516 45 0.0 0.9 0.00 0.00 0.00 74 1017.1
20260503014517 46 0.0 1.7 0.00 0.00 0.00 71 1017.0
20260503013536 46 0.0 1.7 0.00 0.00 0.00 70 1016.8
20260503012526 47 0.0 1.7 0.00 0.00 0.00 69 1016.8
20260503011556 48 0.0 1.7 0.00 0.00 0.00 68 1016.7
20260503010516 48 315 0.9 0.9 0.00 0.00 0.00 66 1016.6
20260503005516 49 0.0 1.7 0.00 0.00 0.00 63 1016.3
20260503004516 50 0.0 1.7 0.00 0.00 0.00 60 1016.2
20260503003516 51 23 0.9 1.7 0.00 0.00 0.00 56 1016.1
20260503002516 52 45 0.9 2.6 0.00 0.00 0.00 58 1015.9
20260503001516 52 338 0.9 2.6 0.00 0.00 0.00 55 1015.8
20260503000516 53 315 0.9 1.7 0.00 0.00 0.00 54 1015.9
20260502235516 54 315 1.7 2.6 0.00 0.00 0.00 51 1015.6
20260502234516 54 0 0.9 1.7 0.00 0.00 0.00 50 1015.5
20260502233516 55 315 2.6 7.0 0.00 0.00 0.00 48 1015.5
20260502232516 56 315 4.3 7.0 0.00 0.00 0.00 46 1015.6
20260502231516 57 338 2.6 7.8 0.00 0.00 0.00 46 1015.7
20260502230516 57 315 2.6 6.1 0.00 0.00 0.00 46 1015.5
20260502225516 57 338 3.5 7.0 0.00 0.00 0.00 46 1015.6
20260502224516 57 23 1.7 3.5 0.00 0.00 0.00 46 1015.5
20260502223516 57 315 1.7 7.0 0.00 0.00 0.00 47 1015.7
20260502222516 58 293 4.3 10.4 0.00 0.00 0.00 43 1015.4
20260502221536 58 293 2.6 8.7 0.00 0.00 0.00 42 1015.2
20260502220536 59 315 2.6 7.8 0.00 0.00 0.00 41 1014.9
20260502215516 60 315 4.3 9.6 0.00 0.00 0.00 40 1015.1
20260502214524 60 0 1.7 3.5 0.00 0.00 0.00 41 1014.8
20260502213516 59 338 3.5 7.0 0.00 0.00 0.00 43 1015.1
20260502212516 59 315 2.6 7.0 0.00 0.00 0.00 42 1014.8
20260502211516 59 23 2.6 8.7 0.00 0.00 0.00 41 1014.8
20260502210516 61 315 2.6 7.8 0.00 0.00 0.00 41 1014.6
20260502205516 60 338 4.3 8.7 0.00 0.00 0.00 39 1014.7
20260502204536 60 45 1.7 6.1 0.00 0.00 0.00 41 1014.6
20260502203516 60 338 2.6 5.2 0.00 0.00 0.00 43 1014.7
20260502202516 59 315 3.5 8.7 0.00 0.00 0.00 40 1014.8
20260502201516 61 45 3.5 10.4 0.00 0.00 0.00 41 1015.0
20260502200516 60 315 1.7 3.5 0.00 0.00 0.00 39 1014.8
20260502195517 60 68 2.6 7.8 0.00 0.00 0.00 38 1014.9
20260502194516 60 45 3.5 10.4 0.00 0.00 0.00 39 1014.9
20260502193516 60 23 3.5 13.9 0.00 0.00 0.00 37 1015.1
20260502192516 60 315 4.3 8.7 0.00 0.00 0.00 42 1015.0
20260502191515 60 338 3.5 10.4 0.00 0.00 0.00 38 1014.8
20260502190555 60 180 1.7 7.0 0.00 0.00 0.00 40 1015.1
20260502185515 61 293 4.3 10.4 0.00 0.00 0.00 36 1015.1
20260502184516 60 338 1.7 4.3 0.00 0.00 0.00 38 1015.2
20260502183516 61 45 2.6 8.7 0.00 0.00 0.00 36 1015.4
20260502182516 61 338 2.6 7.0 0.00 0.00 0.00 41 1015.4
20260502181535 62 23 1.7 7.8 0.00 0.00 0.00 40 1015.5
20260502180535 60 315 2.6 7.0 0.00 0.00 0.00 38 1015.6
20260502170517 60 0 2.6 9.6 0.00 0.00 0.00 42 1016.1
20260502163517 60 113 2.6 8.7 0.00 0.00 0.00 39 1016.3
20260502162517 59 23 2.6 7.8 0.00 0.00 0.00 41 1016.5
20260502161518 58 293 2.6 6.1 0.00 0.00 0.00 42 1016.3
20260502160537 59 315 4.3 10.4 0.00 0.00 0.00 44 1016.5
20260502151521 57 135 1.7 4.3 0.00 0.00 0.00 45 1016.7
20260502150517 57 293 2.6 7.0 0.00 0.00 0.00 48 1016.8
20260502130517 53 158 0.9 3.5 0.00 0.00 0.00 60 1016.5
20260502123517 51 90 0.9 2.6 0.00 0.00 0.00 63 1016.4
20260502122516 50 23 0.9 3.5 0.00 0.00 0.00 63 1016.4
20260502121517 49 0 1.7 4.3 0.00 0.00 0.00 67 1016.3
20260502120516 48 23 0.9 2.6 0.00 0.00 0.00 69 1016.3
20260502115517 47 0 0.9 2.6 0.00 0.00 0.00 69 1016.0
20260502114517 47 0.0 1.7 0.00 0.00 0.00 72 1016.0
20260502113517 47 0.0 0.0 0.00 0.00 0.00 73 1015.9
20260502112536 47 0.0 0.9 0.00 0.00 0.00 74 1015.8
20260502111517 47 0.0 1.7 0.00 0.00 0.00 71 1015.7
20260502110523 47 0.0 0.9 0.00 0.00 0.00 71 1015.6
20260502105536 47 338 0.9 1.7 0.00 0.00 0.00 69 1015.6
20260502104516 47 0 0.9 1.7 0.00 0.00 0.00 69 1015.6
20260502103516 48 338 1.7 3.5 0.00 0.00 0.00 68 1015.6
20260502102537 48 338 0.9 1.7 0.00 0.00 0.00 68 1015.9
20260502100516 48 0 1.7 2.6 0.00 0.00 0.00 66 1015.5
20260502090516 48 0 0.9 1.7 0.00 0.00 0.00 66 1015.5
20260502071516 49 338 0.9 1.7 0.00 0.00 0.00 68 1016.2
20260502070556 50 0.0 1.7 0.00 0.00 0.00 68 1016.2
20260502065516 50 23 0.9 1.7 0.00 0.00 0.00 66 1016.1
20260502064516 50 338 0.9 1.7 0.00 0.00 0.00 66 1016.1
20260502063516 50 0 0.9 1.7 0.00 0.00 0.00 65 1016.3
20260502062516 50 338 0.9 1.7 0.00 0.00 0.00 65 1016.2
20260502061516 50 0 1.7 3.5 0.00 0.00 0.00 64 1016.1
20260502060516 51 338 0.9 2.6 0.00 0.00 0.00 64 1016.0
20260502055516 51 0 1.7 3.5 0.00 0.00 0.00 62 1016.0
20260502054516 51 0 1.7 3.5 0.00 0.00 0.00 62 1016.2
20260502053517 51 23 0.9 3.5 0.00 0.00 0.00 62 1016.3
20260502052536 52 45 1.7 4.3 0.00 0.00 0.00 61 1016.3
20260502051556 52 0 2.6 5.2 0.00 0.00 0.00 60 1016.2
20260502050516 52 0 0.9 1.7 0.00 0.00 0.00 61 1016.2
20260502045516 53 0 0.9 4.3 0.00 0.00 0.00 59 1016.1
20260502044516 53 0 1.7 4.3 0.00 0.00 0.00 59 1016.1
20260502043515 53 0 1.7 4.3 0.00 0.00 0.00 59 1016.1
20260502042536 53 0 0.9 2.6 0.00 0.00 0.00 59 1015.8
20260502041516 54 0 2.6 7.8 0.00 0.00 0.00 58 1015.8
20260502040516 54 23 1.7 4.3 0.00 0.00 0.00 59 1015.7